METEOSAT 1 AKM

基本信息
目录编号:
13907
目录名称:
METEOSAT 1 AKM
国际标识:
1977-108D
轨道中心:
EARTH
物体状态:
在轨
发射日期:
1977-11-23 UTC
国别:
(ESA)
轨道信息
数据来源: 国际轨道数据
星历时间: 2026-07-13T03:00:59+0800
半长轴: 42872.743km
偏心率: 0.0092569
轨道倾角: 6.243°
近地点辐角: 155.499°
升交点赤经: 280.717°
平近点角: 219.139°
近地点: 36097.737km
远地点: 36891.475km
周期: 1472.420分钟
每日圈数: 0.977982
详细信息
发射场:
AFETR
轨道高度:
HEO
数据来源:
AOE Integration Group
参考系:
TEME
时间系统:
UTC
历元类型:
SGP4
2D轨道图
3D轨道图
轨道高度分析图
轨道倾角分析图
轨道综合分析图
查看轨道综合分析图